THOR ABLESTAR DEB, 3124

Orbit data source: Space-Track

THOR ABLESTAR DEB, 3124 is space debris in LEO originally from a launch on Thu, 29 Jun 1961 UTC launched from the Air Force Eastern Test Range (AFETR). Debris objects in space refer to the collection of defunct objects orbiting the Earth. Examples of debris include non-operational satellites, rocket bodies, and fragments generated from explosions, collisions, or faulty payload assembly.

Loading next visibility...
Identifier
3124, 1961-015HX
Orbit
LEO
Country
Flag of USUS
Related business
Manufacturer
Unknown
Mission
Spacecraft
Bus & Motor
Unknown
Mass
Unknown
Launch date (UTC)
1961-06-29 (64 years ago)
Launch vehicle
Unknown
Launch site
Air Force Eastern Test Range (AFETR)
Object type
Payload
Rocket body
Debris
Shape & HBR
Unknown
Radar Cross Section
Small (<0.1 m²)

Expand to show TLE details & history
Last TLE update: 13 hours ago

TLE from 13 hours ago
0 THOR ABLESTAR DEB
1 03124U 61015HX  25260.98119549  .00000372  00000-0  44014-3 0  9992
2 03124  66.9855 186.9348 0330088 269.0958  87.2278 13.56584696132206
Epoch: 2025-09-17T23:32Z
TLE epoch observation values (Epoch: 2025-09-17T23:32:55.29Z)
Latitude
0.00004°
Longitude
-163.44491°
Altitude
1,046.418 km
Speed
7.331 km/s
True Right ascension
12h 27m 44s
True Declination
0° 00' 00"
Sunlit
Object was in daylight at epoch
Visualization orbit readout
Latitude
Unknown
Longitude
Unknown
Altitude
Unknown
Speed
Unknown
Apparent Right ascension
Unknown
Apparent Declination
Unknown
Sunlit
N/A
Visualization observer readout
Local Sidereal Time
05:38:57
Azimuth
Unknown
Elevation
Unknown
Doppler factor
Unknown
Orbital elements
Apogee altitude
1,291.606 km
Perigee altitude
801.448 km
Semi-major axis
7,424.664 km
Eccentricity
0.03301
Inclination
66.9855°
RAAN
186.9348°
Arg. of periapsis
269.0958°
True anomaly
91.01071°
Mean anomaly
87.2278°
Eccentric anomaly
89.11884°
Mean motion
3.39256 °/min
Orbital period
106.11 mins
BSTAR
0.00044014
Loading maneuver chart data...
Computing Atmospheric mass density...

Documentation

Showing up to 5 results
|